This demonstration page uses our WeatherBlox Daily Observations layout. Learn more.

Left ArrowRight Arrow

39.92423, -83.80882

Hourly Observations for September 16, 2021

Temp ( °F °C ) Dew Point ( °F °C ) Humidity (%) Winds ( mph kmh ) Pressure ( in mb ) Visibility ( mi km ) Precip ( " mm )
12:56 am 00:56 Clear 59 15 N/A N/A ENE 6 9 30.09 1019 10 16 N/A
1:56 am 01:56 Clear 61 16 N/A N/A ENE 7 11 30.09 1019 10 16 N/A
2:56 am 02:56 Hazy 59 15 N/A N/A E 3 6 30.08 1019 4 6 N/A
3:15 am 03:15 Clear with Mist and Fog 59 15 N/A N/A E 5 7 30.08 1019 2 3 N/A
3:37 am 03:37 Partly Cloudy with Mist and Fog 57 14 N/A N/A ENE 6 9 30.09 1019 3 5 N/A
3:56 am 03:56 Clear with Mist and Fog 57 14 N/A N/A ENE 3 6 30.08 1019 2 3 N/A
4:09 am 04:09 Clear with Mist and Fog 57 14 N/A N/A ENE 3 6 30.09 1019 1 1 N/A
4:22 am 04:22 Clear with Fog 59 15 N/A N/A NE 6 9 30.08 1019 1 1 N/A
4:29 am 04:29 Clear with Mist and Fog 57 14 N/A N/A NE 5 7 30.09 1019 1 2 N/A
4:38 am 04:38 Clear with Mist and Fog 57 14 N/A N/A NE 6 9 30.09 1019 1 1 N/A
4:41 am 04:41 Clear with Mist and Fog 57 14 N/A N/A NNE 6 9 30.09 1019 1 2 N/A
4:44 am 04:44 Clear with Mist and Fog 57 14 N/A N/A NNE 6 9 30.09 1019 3 5 N/A
4:56 am 04:56 Clear 59 15 N/A N/A NE 7 11 30.08 1019 8 13 N/A
5:21 am 05:21 Clear with Mist and Fog 57 14 N/A N/A E 3 6 30.09 1019 2 3 N/A
5:30 am 05:30 Clear with Mist and Fog 57 14 N/A N/A ENE 5 7 30.10 1019 1 2 N/A
5:40 am 05:40 Clear with Fog 57 14 N/A N/A ENE 5 7 30.10 1019 1 1 N/A
5:46 am 05:46 Partly Cloudy with Fog 57 14 N/A N/A ENE 5 7 30.10 1019 0 0 N/A
5:54 am 05:54 Mostly Cloudy with Fog 57 14 N/A N/A ENE 6 9 30.10 1019 1 1 N/A
5:56 am 05:56 Mostly Cloudy with Fog 55 13 N/A N/A ENE 6 9 30.09 1019 0 0 N/A
6:04 am 06:04 Mostly Cloudy with Mist and Fog 55 13 N/A N/A NE 7 11 30.10 1019 1 1 N/A
6:07 am 06:07 Mostly Clear with Mist and Fog 55 13 N/A N/A NE 6 9 30.10 1019 1 2 N/A
6:15 am 06:15 Clear with Mist and Fog 55 13 N/A N/A ENE 5 7 30.10 1019 3 4 N/A
6:31 am 06:31 Hazy 55 13 N/A N/A E 5 7 30.10 1019 4 6 N/A
6:56 am 06:56 Hazy 55 13 N/A N/A undefined N/A 30.10 1019 6 10 N/A
7:16 am 07:16 Hazy 55 13 N/A N/A undefined N/A 30.11 1020 5 8 N/A
7:56 am 07:56 Partly Cloudy 55 13 N/A N/A E 3 6 30.13 1020 9 14 N/A
8:56 am 08:56 Sunny 63 17 N/A N/A ENE 7 11 30.14 1021 10 16 N/A
9:49 am 09:49 Partly Cloudy 64 18 64 18 100 100 SE 8 13 30.14 1021 10 16 N/A
9:56 am 09:56 Mostly Cloudy 64 17.8 64 17.8 100 100 SE 6 9 30.15 1021 10 16 N/A
10:56 am 10:56 Cloudy 64 18 N/A N/A undefined N/A 30.16 1021 9 14 N/A
11:56 am 11:56 Cloudy 66 19 N/A N/A VRB 3 6 30.16 1021 9 14 N/A
12:56 pm 12:56 Mostly Sunny 73 22.8 68 20 84 84 VRB 5 7 30.14 1021 10 16 N/A
1:56 pm 13:56 Mostly Sunny 75 23.9 69 20.6 82 82 SSE 8 13 30.12 1020 10 16 N/A
2:56 pm 14:56 Mostly Sunny 76 24.4 68 20 77 77 SSE 7 11 30.11 1020 10 16 N/A
3:56 pm 15:56 Mostly Sunny 77 25 68 20 74 74 ESE 8 13 30.09 1019 10 16 N/A
4:56 pm 16:56 Mostly Sunny 78 25.6 66 18.9 67 67 VRB 6 9 30.09 1019 10 16 N/A
5:56 pm 17:56 Sunny 78 25.6 66 18.9 67 67 SE 6 9 30.09 1019 10 16 N/A
6:56 pm 18:56 Sunny 76 24.4 67 19.4 74 74 SSE 3 6 30.09 1019 10 16 N/A
7:56 pm 19:56 Clear 71 21.7 69 20.6 94 94 N N/A 30.10 1019 10 16 N/A
8:56 pm 20:56 Clear 66 19 N/A N/A N N/A 30.11 1020 10 16 N/A
9:56 pm 21:56 Clear 63 17 N/A N/A ENE 3 6 30.13 1020 8 13 N/A
10:56 pm 22:56 Hazy 63 17 N/A N/A N N/A 30.13 1020 6 10 N/A
11:56 pm 23:56 Clear 63 17 N/A N/A SE 3 6 30.13 1020 8 13 N/A

Powered by AerisWeather